[[{"header":{"parameterUnit":"m.s-1","parameterCategory":1,"la1":30.2991,"la2":30.254,"lo1":-89.0895,"lo2":-89.0444,"dx":0.0017,"dy":0.0017,"nx":28,"ny":28,"refTime":"2022-11-07T09:00:00:Z","depth":0,"parameterNumber":2,"parameterNumberName":"U-component_of_WINDS"},"data":[0,0,0,0,0,0,0,0,0,0,0,0,0,0,0,0,0,0,0,0,0,0,0,0,0,0,0,0,0,0,0,0,0,0,0,0,0,0,0,0,0,0,0,0,0,0,0,0,0,0,0,0,0,0,0,0,0,0,-2.7837,-2.7837,0,-2.7792,-2.7792,-2.7791,-2.7773,-2.7773,-2.7773,-2.7773,-2.7727,-2.7726,-2.7725,0,0,0,0,0,0,0,0,0,0,0,0,0,-2.7911,-2.791,-2.7837,-2.7837,-2.7836,-2.7792,-2.7792,-2.7791,-2.7773,-2.7773,-2.7773,-2.7773,-2.7728,-2.7726,-2.7724,0,0,0,0,0,0,0,0,0,0,0,0,0,-2.7874,-2.791,-2.7838,-2.7822,-2.782,-2.7792,-2.7792,-2.7791,-2.7773,-2.7773,-2.7773,-2.7773,-2.7728,-2.7726,-2.7724,-2.7709,0,0,-2.7718,-2.7717,0,0,0,0,0,0,0,0,-2.7876,-2.7871,-2.7825,-2.7823,-2.7821,-2.7788,-2.7801,-2.7764,-2.7772,-2.7791,-2.7773,-2.7773,-2.7747,-2.7744,-2.7735,-2.7707,-2.7705,-2.7718,-2.7717,-2.7716,-2.7715,0,0,0,0,0,0,0,-2.7879,-2.7873,-2.782,-2.7824,-2.7822,-2.7818,-2.7813,-2.7794,-2.7769,-2.7789,-2.7787,-2.7782,-2.7746,-2.7737,-2.7734,-2.7704,-2.7718,-2.7716,-2.7715,-2.7714,-2.7667,-2.7667,0,0,0,0,0,0,-2.7884,-2.7876,-2.7821,-2.7818,-2.7849,-2.7817,-2.7811,-2.7798,-2.7769,-2.7764,-2.7782,-2.7782,-2.774,-2.7736,-2.7732,-2.7716,-2.7716,-2.7714,-2.7713,-2.7667,-2.7667,-2.7667,0,0,0,0,0,0,-2.7885,-2.7879,-2.7823,-2.7846,-2.7839,-2.7815,-2.7801,-2.7797,-2.7788,-2.7764,-2.7759,-2.7777,-2.774,-2.7735,-2.7716,-2.7714,-2.7713,-2.7712,-2.7668,-2.7667,-2.7667,-2.768,0,0,0,0,0,0,-2.7888,-2.788,-2.7872,-2.7846,-2.7838,-2.7806,-2.7801,-2.7796,-2.7785,-2.7783,-2.7758,-2.7754,-2.774,-2.7719,-2.7714,-2.7711,-2.771,-2.7668,-2.7667,-2.7667,-2.768,-2.7681,-2.7681,0,0,0,0,0,-2.789,-2.7877,-2.7872,-2.7866,-2.7828,-2.7806,-2.7801,-2.7785,-2.7784,-2.7778,-2.7763,-2.7755,-2.7715,-2.7717,-2.7712,-2.7708,-2.7668,-2.7667,-2.7667,-2.768,-2.7681,-2.7681,0,0,0,0,0,0,-2.7901,-2.7873,-2.7867,-2.7845,-2.7828,-2.7803,-2.7793,-2.7786,-2.7769,-2.7768,-2.775,-2.7745,-2.7728,-2.7716,-2.7719,-2.7694,-2.7691,-2.769,-2.7702,-2.7703,-2.7704,-2.7707,-2.7708,0,0,0,0,0,-2.7902,-2.7885,-2.7862,-2.7844,-2.7836,-2.7817,-2.7806,-2.7796,-2.7778,-2.7771,-2.7755,-2.7738,-2.7723,-2.7712,-2.7696,-2.7679,-2.7675,-2.7674,-2.7675,-2.7675,-2.7674,-2.7669,-2.7669,-2.7667,-2.7667,-2.7667,0,0,-2.7901,-2.7884,-2.7874,-2.7846,-2.7832,-2.7817,-2.7811,-2.7794,-2.7784,-2.7768,-2.775,-2.7738,-2.7719,-2.7702,-2.7694,-2.7692,-2.7674,-2.7675,-2.7676,-2.7674,-2.7668,-2.7669,-2.7669,-2.7667,-2.7667,-2.7667,0,0,-2.7893,-2.7877,-2.7863,-2.785,-2.7829,-2.7817,-2.7814,-2.7791,-2.7783,-2.7765,-2.7755,-2.7743,-2.7715,-2.7703,-2.7693,-2.7687,-2.7679,-2.7682,-2.7685,-2.768,-2.768,-2.768,-2.768,-2.768,-2.7681,-2.7681,-2.7681,0,-2.7894,-2.7871,-2.7856,-2.7842,-2.7831,-2.7819,-2.7806,-2.7794,-2.7769,-2.7763,-2.7761,-2.7729,-2.7715,-2.7697,-2.7696,-2.7688,-2.7686,-2.7684,-2.7681,-2.7681,-2.7681,-2.7681,-2.7681,-2.7682,-2.7682,-2.7682,-2.7682,0,-2.7876,-2.786,-2.7851,-2.783,-2.7818,-2.7804,-2.7789,-2.778,-2.7773,-2.7762,-2.7746,-2.773,-2.7712,-2.7707,-2.7698,-2.7689,-2.7689,-2.7684,-2.7681,-2.7682,-2.7682,-2.7682,-2.7683,-2.7683,-2.7682,-2.7682,0,0,-2.7869,-2.7843,-2.784,-2.7832,-2.7812,-2.78,-2.7788,-2.7771,-2.7765,-2.775,-2.7741,-2.772,-2.7717,-2.7707,-2.7697,-2.7693,-2.7693,-2.7689,-2.7688,-2.7692,-2.7686,-2.769,-2.769,-2.7688,-2.7688,-2.7688,-2.7688,0,-2.7859,-2.7835,-2.7824,-2.7807,-2.7794,-2.7785,-2.7775,-2.7762,-2.7753,-2.7743,-2.7733,-2.772,-2.7715,-2.7709,-2.7705,-2.7694,-2.7691,-2.7693,-2.7681,-2.7681,-2.7687,-2.769,-2.7693,-2.7693,-2.7688,-2.7688,-2.7688,0,-2.7842,-2.783,-2.7811,-2.7797,-2.7791,-2.7782,-2.7769,-2.7758,-2.7745,-2.7739,-2.773,-2.7722,-2.7712,-2.771,-2.7697,-2.7699,-2.7694,-2.7688,-2.7688,-2.7686,-2.7684,-2.7689,-2.7693,-2.7694,-2.7687,-2.7687,-2.7687,0,-2.7842,-2.782,-2.7807,-2.7801,-2.7782,-2.7777,-2.777,-2.7757,-2.775,-2.7739,-2.7735,-2.7722,-2.7716,-2.7708,-2.7698,-2.7697,-2.7687,-2.7684,-2.7684,-2.7684,-2.7681,-2.7682,-2.7685,-2.7677,-2.7677,-2.7677,-2.7677,0,-2.7832,-2.7821,-2.7808,-2.7799,-2.7789,-2.7778,-2.7769,-2.7761,-2.7751,-2.7743,-2.7735,-2.7728,-2.7715,-2.7707,-2.77,-2.7692,-2.7689,-2.7686,-2.7684,-2.7687,-2.7687,-2.7683,-2.7683,-2.7677,-2.7677,-2.7677,-2.7677,0,-2.7828,-2.7818,-2.7804,-2.779,-2.7787,-2.778,-2.7769,-2.7762,-2.7755,-2.7745,-2.7743,-2.7731,-2.7722,-2.7712,-2.7699,-2.7695,-2.7689,-2.7685,-2.7693,-2.7692,-2.7694,-2.7694,-2.7695,-2.7696,-2.7686,-2.7686,-2.7686,0,-2.7822,-2.7814,-2.7801,-2.7796,-2.7789,-2.778,-2.7773,-2.7764,-2.7758,-2.7747,-2.7742,-2.7733,-2.7725,-2.7712,-2.7703,-2.7695,-2.7693,-2.7694,-2.7691,-2.7696,-2.7695,-2.7696,-2.7697,-2.7694,-2.7694,-2.7694,-2.7694,0,-2.7813,-2.7811,-2.7801,-2.7792,-2.7785,-2.7777,-2.7769,-2.7765,-2.7755,-2.775,-2.7741,-2.7735,-2.7725,-2.7717,-2.7709,-2.7703,-2.7698,-2.7696,-2.7696,-2.7699,-2.7704,-2.7704,-2.7696,-2.7695,-2.7695,-2.7695,-2.7695,-2.7695,-2.7809,-2.7804,-2.7795,-2.7787,-2.7781,-2.7774,-2.7769,-2.7763,-2.7756,-2.7747,-2.7742,-2.7735,-2.7728,-2.7716,-2.7711,-2.7707,-2.7705,-2.7704,-2.7704,-2.7704,-2.7707,-2.7705,-2.7705,-2.7705,-2.7705,-2.7705,-2.7705,0,-2.7802,-2.7797,-2.779,-2.778,-2.7775,-2.7772,-2.7765,-2.7761,-2.7755,-2.7748,-2.7742,-2.7735,-2.7729,-2.7722,-2.7716,-2.7715,-2.7713,-2.7713,-2.7714,-2.7713,-2.7707,-2.7709,-2.7715,-2.7715,-2.7715,-2.7715,-2.7715,-2.7715,-2.7797,-2.7789,-2.7786,-2.7776,-2.7772,-2.7765,-2.7762,-2.7758,-2.7753,-2.7746,-2.7741,-2.7737,-2.7732,-2.7727,-2.7722,-2.7721,-2.772,-2.7722,-2.772,-2.7714,-2.7713,-2.7712,-2.7714,-2.7721,-2.7721,-2.7726,-2.7726,-2.7726]},{"header":{"parameterUnit":"m.s-1","parameterCategory":1,"la1":30.2991,"la2":30.254,"lo1":-89.0895,"lo2":-89.0444,"dx":0.0017,"dy":0.0017,"nx":28,"ny":28,"refTime":"2022-11-07T09:00:00:Z","depth":0,"parameterNumber":3,"parameterNumberName":"V-component_of_WINDS"},"data":[0,0,0,0,0,0,0,0,0,0,0,0,0,0,0,0,0,0,0,0,0,0,0,0,0,0,0,0,0,0,0,0,0,0,0,0,0,0,0,0,0,0,0,0,0,0,0,0,0,0,0,0,0,0,0,0,0,0,0.1816,0.1815,0,0.1776,0.1775,0.1775,0.1791,0.1792,0.1793,0.1794,0.175,0.1748,0.1746,0,0,0,0,0,0,0,0,0,0,0,0,0,0.1902,0.1901,0.1816,0.1815,0.1815,0.1776,0.1775,0.1775,0.1791,0.1792,0.1794,0.1795,0.1751,0.1748,0.1746,0,0,0,0,0,0,0,0,0,0,0,0,0,0.1864,0.19,0.1816,0.1818,0.1818,0.1776,0.1775,0.1775,0.1791,0.1792,0.1794,0.1795,0.1751,0.1748,0.1745,0.1697,0,0,0.1736,0.1734,0,0,0,0,0,0,0,0,0.1866,0.1861,0.1818,0.1818,0.1818,0.179,0.179,0.1748,0.1791,0.1801,0.1794,0.1796,0.1762,0.1758,0.1747,0.1695,0.1693,0.1735,0.1734,0.1732,0.1731,0,0,0,0,0,0,0,0.1869,0.1862,0.18,0.1818,0.1817,0.182,0.1816,0.1782,0.1774,0.18,0.1801,0.1797,0.1762,0.175,0.1746,0.1693,0.1736,0.1733,0.1731,0.173,0.1597,0.1596,0,0,0,0,0,0,0.1872,0.1865,0.1801,0.1799,0.1846,0.1818,0.1813,0.1797,0.1774,0.1772,0.1796,0.1798,0.1755,0.175,0.1745,0.1685,0.1732,0.1729,0.1728,0.1599,0.1597,0.1595,0,0,0,0,0,0,0.1874,0.1866,0.1803,0.1832,0.1824,0.1815,0.1797,0.1796,0.1784,0.1771,0.1769,0.1785,0.1756,0.1749,0.1709,0.1684,0.1728,0.1725,0.1601,0.1598,0.1596,0.1567,0,0,0,0,0,0,0.1876,0.1867,0.1849,0.1831,0.1822,0.1768,0.1795,0.1794,0.1779,0.1782,0.176,0.1758,0.1756,0.1713,0.1706,0.168,0.1723,0.1603,0.16,0.1597,0.157,0.1564,0.1558,0,0,0,0,0,0.1879,0.1842,0.1848,0.184,0.18,0.1767,0.1761,0.1761,0.1777,0.1759,0.175,0.1759,0.1689,0.1709,0.1701,0.1674,0.1604,0.1601,0.1597,0.1572,0.1565,0.1558,0,0,0,0,0,0,0.1855,0.184,0.1846,0.1802,0.1786,0.177,0.1746,0.1753,0.1731,0.1734,0.1733,0.1728,0.1686,0.1677,0.17,0.1626,0.1649,0.1643,0.1633,0.1626,0.162,0.1622,0.172,0,0,0,0,0,0.1846,0.1821,0.1808,0.177,0.1762,0.1755,0.1741,0.1742,0.1724,0.1717,0.1705,0.1687,0.1661,0.1643,0.1618,0.157,0.1564,0.1547,0.1541,0.1537,0.1531,0.1502,0.1494,0.1583,0.1583,0.1583,0,0,0.1824,0.1812,0.1796,0.1765,0.1753,0.1725,0.1749,0.172,0.1699,0.1712,0.1673,0.1664,0.1643,0.1598,0.1578,0.1589,0.1506,0.1532,0.1528,0.1525,0.1498,0.1489,0.1482,0.158,0.1581,0.1581,0,0,0.177,0.176,0.1726,0.1714,0.1695,0.1691,0.1683,0.1666,0.166,0.1621,0.163,0.1605,0.1561,0.1545,0.1531,0.1472,0.1478,0.1464,0.1432,0.1405,0.1398,0.1391,0.1368,0.136,0.1459,0.1459,0.1459,0,0.1745,0.1705,0.1708,0.1678,0.1663,0.1676,0.1641,0.1628,0.1601,0.159,0.1604,0.1547,0.1534,0.1484,0.147,0.1459,0.1449,0.1465,0.1399,0.1393,0.1387,0.1364,0.1356,0.1457,0.1457,0.1457,0.1458,0,0.1674,0.1647,0.1622,0.1597,0.158,0.1548,0.1544,0.1527,0.153,0.1524,0.1483,0.1469,0.144,0.1429,0.1432,0.1379,0.1387,0.14,0.1422,0.1376,0.1355,0.1347,0.1454,0.1455,0.1455,0.1456,0,0,0.1602,0.158,0.1571,0.1559,0.1539,0.1517,0.1485,0.1459,0.1442,0.1424,0.1395,0.1358,0.1369,0.1354,0.1354,0.1331,0.1282,0.1346,0.1346,0.1332,0.1221,0.1209,0.1199,0.1288,0.1286,0.1285,0.1222,0,0.1545,0.149,0.1492,0.1439,0.1413,0.1424,0.1396,0.138,0.1374,0.135,0.1343,0.1315,0.1334,0.1325,0.1302,0.1293,0.1259,0.1298,0.1258,0.1257,0.126,0.1189,0.1176,0.1117,0.1214,0.1212,0.1211,0,0.1471,0.145,0.1395,0.1379,0.1368,0.1343,0.1318,0.1295,0.1277,0.1274,0.1257,0.1262,0.1228,0.1254,0.1205,0.1232,0.1216,0.1209,0.1207,0.1201,0.1229,0.1178,0.1099,0.1089,0.1199,0.12,0.1201,0,0.142,0.138,0.1341,0.1331,0.1312,0.1293,0.1284,0.1268,0.1251,0.1229,0.1218,0.1193,0.1178,0.1157,0.1154,0.1174,0.1105,0.1131,0.11,0.1099,0.1082,0.1083,0.0997,0.1077,0.1077,0.1077,0.1077,0,0.1355,0.132,0.1318,0.1294,0.1255,0.1258,0.1219,0.1211,0.1197,0.117,0.1179,0.1154,0.1153,0.1127,0.1125,0.1084,0.1078,0.1073,0.1072,0.107,0.107,0.1058,0.1061,0.1075,0.1075,0.1076,0.1076,0,0.1291,0.1289,0.1247,0.1233,0.1228,0.12,0.1186,0.1163,0.1159,0.1125,0.1117,0.111,0.1079,0.1075,0.1039,0.1038,0.0988,0.0993,0.0994,0.0993,0.0961,0.0963,0.0861,0.0847,0.0939,0.0939,0.0938,0,0.1247,0.1221,0.1204,0.1188,0.1177,0.1151,0.1135,0.1136,0.1118,0.1096,0.1074,0.1045,0.1022,0.0972,0.0962,0.0935,0.0937,0.0904,0.0933,0.0932,0.0933,0.0934,0.093,0.0897,0.0896,0.0895,0.0895,0,0.117,0.117,0.1147,0.1123,0.1103,0.1084,0.1066,0.1052,0.1051,0.103,0.1,0.0982,0.0946,0.0916,0.0888,0.0878,0.0884,0.0886,0.0877,0.0873,0.0874,0.087,0.0975,0.0888,0.0888,0.0889,0.0889,0.0889,0.1113,0.109,0.1074,0.1047,0.1034,0.1017,0.0994,0.0987,0.0962,0.0933,0.0936,0.0902,0.0883,0.0848,0.0835,0.0807,0.0818,0.0805,0.0801,0.0797,0.0793,0.0881,0.0803,0.0803,0.0803,0.0803,0.0803,0,0.1034,0.1025,0.1,0.0975,0.0954,0.0965,0.0946,0.0926,0.0897,0.088,0.0857,0.0821,0.0792,0.0781,0.0752,0.0732,0.0734,0.0724,0.0724,0.072,0.0786,0.0796,0.0722,0.0722,0.0722,0.0722,0.0722,0.0722,0.099,0.095,0.0949,0.0902,0.0893,0.086,0.0848,0.0832,0.0818,0.0778,0.0755,0.0748,0.0733,0.0703,0.0676,0.0674,0.0661,0.0649,0.0647,0.0708,0.0716,0.0724,0.0733,0.0647,0.0647,0.0583,0.0583,0.0582]}]]